Regional Weather Roundup
Issued by NWS San Angelo, TX

Home | Current Version | Previous Version | Text Only | Print | Product List | Glossary On
Versions: 1 2 3 4 5 6 7 8 9 10 11 12 13 14 15 16 17 18 19 20 21 22 23 24 25 26 27 28 29 30 31 32 33 34 35 36 37 38 39 40 41 42 43 44 45 46 47 48 49 50
000
ASUS44 KSJT 240310
RWRSJT
WEST CENTRAL TEXAS REGIONAL WEATHER ROUNDUP
NATIONAL WEATHER SERVICE SAN ANGELO TX
1000 PM CDT TUE MAY 23 2017

NOTE: "FAIR" INDICATES FEW OR NO CLOUDS BELOW 12,000 FEET WITH NO
SIGNIFICANT WEATHER AND/OR OBSTRUCTIONS TO VISIBILITY.

TXZ049-054-064>066-071>073-076>078-098-099-113-114-127-128-139-140-
154-155-168>170-240400
...LOCATIONS ACROSS WEST CENTRAL TEXAS...

CITY           SKY/WX    TMP DP  RH WIND       PRES   REMARKS
SAN ANGELO     CLEAR     56  44  64 NW5       30.03F
ABILENE          N/A     54  51  90 SW5       30.00S
DYESS AFB      NOT AVBL
JUNCTION       CLEAR     61  50  67 N6        30.02R
SWEETWATER     CLEAR     58  50  76 SW7       30.04S
BROWNWOOD      PTCLDY    54  50  87 CALM      30.00S FOG
COLEMAN        CLEAR     55  48  76 W3        30.01S
SONORA         CLEAR     61  46  59 N8        30.08R
OZONA            N/A     59  43  55 N7        30.08R
BRADY          NOT AVBL
$$

TEXAS PANHANDLE/OKLAHOMA PANHANDLE

CITY           SKY/WX    TMP DP  RH WIND       PRES   REMARKS
AMARILLO       CLEAR     52  35  52 NW3       30.05R
BORGER         CLEAR     58  39  49 W3        30.02S
CANADIAN       CLEAR     55  45  69 CALM      29.98S
DALHART        CLEAR     56  37  49 NW5       30.08R
DUMAS          CLEAR     49  41  72 W7        30.05S
GUYMON         NOT AVBL
HEREFORD       PTCLDY    54  39  55 N7        30.08R
PAMPA          CLEAR     51  41  69 N9        30.02R
PERRYTON       MOCLDY    54  46  74 N5        29.99F
$$

SOUTHERN PANHANDLE/SOUTH PLAINS/ROLLING PLAINS

CITY           SKY/WX    TMP DP  RH WIND       PRES   REMARKS
LUBBOCK        PTCLDY    57  42  57 NE6       30.02F
SNYDER         CLEAR     62  45  53 CALM      30.02F
CHILDRESS      CLEAR     61  43  51 CALM      29.97F
SEMINOLE       CLEAR     59  35  40 CALM      30.06S
$$

PERMIAN BASIN

CITY           SKY/WX    TMP DP  RH WIND       PRES   REMARKS
MIDLAND        CLEAR     62  41  46 S5        30.04F
ODESSA         CLEAR     60  44  55 CALM      30.04F
WINK           CLEAR     63  35  35 E6        30.03R
$$

FAR WEST/SOUTHWEST MOUNTAINS/TRANS PECOS

CITY           SKY/WX    TMP DP  RH WIND       PRES   REMARKS
ALPINE         CLEAR     56  45  65 E5        30.15R
DRYDEN           N/A     63  51  65 N5        30.02R
EL PASO        PTCLDY    72  37  28 E15       29.97R
FORT STOCKTON  CLEAR     59  46  62 SE3       30.05R
GUADALUPE PASS CLEAR     56  39  53 NE28      30.09R
MARFA          CLEAR     57  43  59 NE13      30.10
PECOS          CLEAR     63  38  40 E6        30.03S
$$

DALLAS/FORT WORTH METROPLEX

CITY           SKY/WX    TMP DP  RH WIND       PRES   REMARKS
DFW AIRPORT    PTCLDY    63  52  67 W13       29.90R
FTW MEACHAM    CLEAR     61  53  75 W9        29.92R
DAL-EXECUTIVE  CLEAR     60  52  74 NW10      29.91R
GRAND PRAIRIE  CLEAR     62  49  63 W7        29.93R
ADDISON        CLEAR     61  52  72 W6        29.92R
MESQUITE       CLEAR     62  51  67 NW10      29.90R
LANCASTER      CLEAR     60  51  72 NW8       29.92R
$$

NORTH CENTRAL TEXAS

CITY           SKY/WX    TMP DP  RH WIND       PRES   REMARKS
SHRMAN/DENISON CLEAR     57  52  85 CALM      29.90S
GAINESVILLE    CLEAR     57  50  78 CALM      29.92S
BRIDGEPORT     PTCLDY    57  50  76 SW5       29.95S
DENTON         CLEAR     56  52  86 W8        29.91R
WAXAHACHIE     CLEAR     59  53  79 W8        29.94R
GRANBURY       CLEAR     58  52  81 W3        29.96F
$$

WESTERN NORTH TEXAS

CITY           SKY/WX    TMP DP  RH WIND       PRES   REMARKS
WICHITA FALLS  CLEAR     62  43  49 NW9       29.92S
VERNON         CLEAR     61  45  55 NW5       29.96R
BRECKENRIDGE   CLEAR     57  50  77 SW5       29.96F
COMANCHE       CLEAR     54  51  89 MISG      29.99S
$$

CENTRAL AND SOUTH CENTRAL TEXAS

CITY           SKY/WX    TMP DP  RH WIND       PRES   REMARKS
AUSTIN/BERGSTM CLEAR     64  57  78 NW7       29.94R
WACO           CLEAR     58  54  86 W8        29.94R
HILLSBORO      CLEAR     58  54  88 W5        29.94R
TEMPLE         CLEAR     59  53  80 NW10      29.96R
KILLEEN-GRAY   CLEAR     59  51  74 NW10      29.96R
FORT HOOD      CLEAR     58  52  80 NW9       29.93R
GEORGETOWN     CLEAR     61  52  72 NW9       29.96R
LAGO VISTA     FAIR      60  55  83 N9        29.97R
SAN MARCOS     CLEAR     63  55  77 N14       29.94R
NEW BRAUNFELS  PTCLDY    65  54  67 N12       29.92R
RANDOLPH AFB   CLEAR     66  54  63 N14       29.92R
SAN ANTONIO    PTCLDY    67  52  58 N12       29.94R
STINSON        MOCLDY    71  52  50 N8        29.91R
PLEASANTON     NOT AVBL
LA GRANGE      PTCLDY    65  62  91 N5        29.91R
GIDDINGS       CLEAR     62  57  86 N8        29.92R
$$

EAST TEXAS

CITY           SKY/WX    TMP DP  RH WIND       PRES   REMARKS
PARIS          CLOUDY    61  54  77 NW8       29.85S
CLARKSVILLE    NOT AVBL
TYLER          CLOUDY    63  61  93 NW12      29.85R
LONGVIEW       RAIN      64  63  96 NW14G22   29.82R
PALESTINE      CLEAR     61  60  96 W9        29.89R
NACOGDOCHES    CLOUDY    64  61  88 NW12      29.82R
$$

TEXAS HILL COUNTRY AND EDWARDS PLATEAU

CITY           SKY/WX    TMP DP  RH WIND       PRES   REMARKS
LLANO          CLEAR     61  50  67 CALM      30.04R
HORSESHOE BAY  NOT AVBL
KERRVILLE      CLEAR     59  53  82 N9        29.99R
FREDERICKSBRG  CLEAR     60  49  69 N9        30.00R
ROCKSPRINGS    CLEAR     59  50  72 CALM      30.04R
HONDO          CLEAR     64  55  72 N3        29.94R
UVALDE         CLEAR     64  55  71 CALM      29.96S
DEL RIO        CLEAR     67  53  61 N7        29.98R
$$

SOUTHEAST TEXAS

CITY           SKY/WX    TMP DP  RH WIND       PRES   REMARKS
COLLEGE STN    CLEAR     63  59  87 NW12      29.89R
CALDWELL       NOT AVBL
CROCKETT       CLEAR     63  61  94 NW5       29.89R
BRENHAM        CLOUDY    64  61  90 NW13G18   29.91R
HUNTSVILLE     CLOUDY    63  61  93 NW7       29.88R
CONROE         LGT RAIN  65  63  93 NW12      29.86R
HOUSTON BUSH   MOCLDY    68  63  84 NW12      29.84R
HOUSTON HOBBY  PTCLDY    69  62  78 N9        29.85R
PERLAND        MOCLDY    71  63  75 N13G23    29.87R
WHARTON        CLOUDY    67  62  84 N10       29.90R
$$

THE UPPER TEXAS COAST

CITY           SKY/WX    TMP DP  RH WIND       PRES   REMARKS
ORANGE         LGT RAIN  68  64  85 NW5G18    29.83R
PORT ARTHUR    CLOUDY    68  64  87 NW10      29.81R
GALVESTON      CLOUDY    73  70  90 N13       29.86R
ANGLETON       CLOUDY    70  67  90 NW10      29.86R
BAY CITY       CLOUDY    70  64  83 N13G20    29.87R
$$

TEXAS COASTAL BEND, RIO GRANDE PLAINS DEEP SOUTH TEXAS

CITY           SKY/WX    TMP DP  RH WIND       PRES   REMARKS
VICTORIA       MOCLDY    69  60  73 N9        29.90R
BEEVILLE       NOT AVBL
ROCKPORT       CLOUDY    70  64  81 N18G28    29.87R
PORT ARANSAS   NOT AVBL
PORT LAVACA    MOCLDY    68  64  86 N13G21    29.89R
CORPUS CHRISTI CLOUDY    71  68  90 N18       29.89R
KINGSVILLE NAS CLOUDY    69  69 100 N12       29.87R
COTULLA        CLEAR     70  55  59 N10       29.92R
LAREDO         PTCLDY    80  69  69 N17G23    29.89R
BROWNSVILLE    CLOUDY    81  76  84 CALM      29.79S
PORT ISABEL    PTCLDY    79  76  90 CALM      29.80R
HEBBRONVILLE   PTCLDY    78  62  59 N10       29.88R
MCALLEN        CLEAR     81  75  82 N6        29.81R
WESLACO        PTCLDY    78  73  83 N6        29.80R
FALFURRIAS     MOCLDY    79  73  81 N18G26    29.85R
EDINBURG       MOCLDY    81  73  77 CALM      29.82R
$$




USA.gov is the U.S. government's official web portal to all federal, state and local government web resources and services.